User: anonymous   Login
Location: Unspecified
(0.0000°N, 0.0000°E)
Time: 01:48:14
(UTC+00:00)
Language:

SES 14 - Orbit

View from above orbital plane
View from above orbital plane
View from above satellite
View from above satellite

Ground track
Ground track

The orbit data is extracted from the following two-line orbital elements,

1 43175U 18012B   20219.72203106 -.00000291  00000-0  00000+0 0  9999
2 43175   0.0025  42.6366 0001122 107.2236  18.2531  1.00272225  9597
Epoch (UTC): 06 August 2020 17:19:43
Eccentricity: 0.0001122
inclination: 0.0025°
perigee height: 35781 km
apogee height: 35791 km
right ascension of ascending node: 42.6366°
argument of perigee: 107.2236°
revolutions per day: 1.00272225
mean anomaly at epoch: 18.2531°
orbit number at epoch: 959

The dashed part of the orbit path shows where the satellite is in the earth's shadow,  

DLR